Regional Weather Roundup
Issued by NWS

Home | Current Version | Previous Version | Text Only | Print | Product List | Glossary Off
Versions: 1 2 3 4 5 6 7 8 9 10 11 12 13 14 15 16 17 18 19 20 21 22 23 24 25 26 27 28 29 30 31 32 33 34 35 36 37 38 39 40 41 42 43 44 45 46 47 48 49 50

000
ASUS43 KFSD 272202
RWRSD

WEATHER ROUNDUP FOR SOUTH DAKOTA
NATIONAL WEATHER SERVICE SIOUX FALLS SD
400 PM CST TUE JAN 27 2015

NOTE: "FAIR" INDICATES FEW OR NO CLOUDS BELOW 12,000 FEET WITH NO
SIGNIFICANT WEATHER AND/OR OBSTRUCTIONS TO VISIBILITY.


SDZ001>005-009-010-012>017-272300-
NORTHWEST AND NORTH CENTRAL SOUTH DAKOTA

CITY           SKY/WX    TMP DP  RH WIND       PRES   REMARKS
BUFFALO          N/A     68  31  25 W8        29.79F
MOBRIDGE       SUNNY     51  37  58 SE10      29.82S
$$

SDZ012>016-024>037-041>051-057-063-072>074-272300-
SOUTHWEST AND SOUTH CENTRAL SOUTH DAKOTA

CITY           SKY/WX    TMP DP  RH WIND       PRES   REMARKS
RAPID CTY ARPT SUNNY     70  28  21 SE10      29.87F
PIERRE         MOSUNNY   58  36  43 SE5       29.85F
CUSTER         SUNNY     60  22  23 W15G30    29.98F
ELLSWORTH AFB  SUNNY     72  29  20 SE8       29.87F
PHILIP         SUNNY     73  28  18 CALM      29.84F
PINE RIDGE     SUNNY     66  31  27 W12       29.93S
WINNER         FAIR      67  35  30 CALM      29.88F
$$

SDZ004>011-016>023-039-040-272300-
NORTHEAST SOUTH DAKOTA

CITY           SKY/WX    TMP DP  RH WIND       PRES   REMARKS
ABERDEEN       MOSUNNY   44  37  76 S14       29.91F
WATERTOWN      MOSUNNY   36  31  82 SE14G21   29.95F
SISSETON         N/A     31  31 100 S17       29.98F WCI  19
$$

SDZ017-020-022-023-036>040-048>070-272300-
SOUTHEAST SOUTH DAKOTA

CITY           SKY/WX    TMP DP  RH WIND       PRES   REMARKS
SIOUX FALLS    PTSUNNY   41  34  76 SE14      30.00F
HURON          SUNNY     41  36  82 SE16      29.92F
MITCHELL       SUNNY     45  39  79 SE16      29.95S
YANKTON        SUNNY     52  36  54 SE15      29.98S
$$

ABBREVIATIONS USED IN REMARKS
   TC - TEMPERATURE IN CELSIUS
  WCI - WIND CHILL INDEX
   HX - HEAT INDEX
  VSB - VISIBILITY




USA.gov is the U.S. government's official web portal to all federal, state and local government web resources and services.